Temperature
20 20 20 20 17 15 17 18 19 19 19 20 21 21 19 19 18 18 19 19 18 16 15 13 13 12 12 12 11 11 10 9 9 9 8 8 8 7 7 7 7 7 7 7 7 7 7 7 7
20 20 20 20 16 16 17 18 18 19 20 20 20 20 19 19 19 19 19 19 18 16 15 14 13 12 12 12 11 11 10 10 9 9 8 8 8 7 7 7 7 7 7 7 7 7 7 7 7
20 20 20 16 16 16 19 19 17 19 20 20 20 20 19 20 19 20 20 19 18 16 15 14 13 12 12 12 11 11 11 10 9 9 8 8 8 7 7 7 7 7 8 7 7 7 7 7 7
20 20 20 16 18 17 18 19 17 17 19 19 19 18 19 19 20 20 20 19 18 17 16 14 13 12 12 11 11 11 11 10 10 9 9 8 8 8 8 8 8 8 8 8 8 7 7 7 7
20 20 17 16 17 18 18 19 18 17 18 19 19 18 19 19 19 19 19 19 19 17 16 14 13 12 11 11 11 11 11 10 10 10 9 9 8 8 8 9 8 8 8 8 8 8 8 8 8
20 18 16 16 17 18 19 20 19 18 18 19 19 18 19 19 19 19 19 18 18 17 16 15 13 12 11 11 11 11 11 11 10 10 10 9 9 9 9 9 9 9 9 9 9 8 8 8 8
20 16 17 17 17 17 19 20 20 19 19 19 20 18 19 19 19 18 18 17 16 16 16 15 13 12 11 11 11 11 11 11 11 10 10 10 10 9 9 9 9 9 9 9 9 9 8 8 8
20 16 18 17 17 18 20 21 21 20 20 20 20 18 19 20 18 17 16 15 15 15 14 14 13 12 11 11 11 11 11 11 11 11 10 10 10 10 9 9 9 9 9 9 9 9 8 8 8
20 15 16 17 18 18 20 20 20 20 20 20 20 20 20 20 18 16 15 14 14 14 14 13 13 13 12 11 11 11 11 11 11 11 11 11 10 10 10 10 9 9 9 9 9 9 8 8 8
19 15 16 17 18 18 19 19 20 19 18 18 19 19 19 19 18 17 17 16 16 16 15 14 13 13 12 11 11 11 11 11 11 11 11 11 11 10 10 10 10 9 9 9 9 9 9 8 8
18 16 16 18 20 20 19 19 19 18 15 18 19 20 19 18 18 17 17 17 17 17 16 15 14 13 12 12 11 11 11 11 11 11 11 11 10 10 10 10 10 10 9 9 9 9 9 8 8
18 17 19 19 20 19 19 19 18 18 19 20 19 19 18 18 18 18 18 18 17 16 16 16 15 13 13 12 12 11 11 11 12 12 11 11 11 11 11 10 10 10 9 9 9 9 9 8 8
18 17 19 19 19 19 18 18 17 18 21 20 19 18 18 18 18 18 18 18 17 16 16 16 15 14 13 12 12 11 11 12 12 12 11 11 11 11 10 10 10 10 9 9 9 8 8 8 8
18 18 18 19 19 18 17 17 16 19 21 21 20 20 19 19 19 18 18 18 17 17 16 16 15 15 14 13 13 13 12 12 11 11 11 11 11 11 10 10 10 10 9 9 8 8 8 8 8
18 16 15 17 17 17 17 15 15 21 20 20 20 20 19 19 19 19 19 19 19 18 17 16 15 15 14 14 13 12 12 12 12 12 11 11 11 10 10 10 10 9 9 8 8 8 8 8 8
16 15 15 16 17 16 17 15 15 19 18 18 19 19 19 20 20 20 20 19 19 18 17 16 15 14 14 13 13 12 12 12 12 11 11 11 11 10 10 10 10 9 9 8 8 8 8 8 8
15 15 15 16 16 16 16 15 15 18 17 17 17 18 19 19 19 20 20 20 19 19 18 17 16 15 14 13 13 12 12 11 11 11 11 11 10 10 10 10 9 9 8 8 8 8 8 7 7
16 15 15 15 15 16 14 13 15 17 17 16 17 18 18 18 19 19 20 19 19 18 17 17 16 15 14 13 12 11 11 11 10 10 10 10 10 9 9 9 9 8 8 8 8 7 7 7 7
16 15 14 14 15 15 14 14 14 16 16 16 17 17 18 18 18 19 19 19 19 18 17 17 16 15 14 13 12 11 11 11 11 11 10 10 9 9 8 8 8 8 8 8 7 7 7 6 6
16 15 14 14 14 15 14 13 14 15 15 16 16 17 17 18 18 19 19 19 18 18 17 16 16 15 14 14 13 12 11 11 11 10 10 10 9 9 8 8 8 7 7 7 7 6 6 6 5
16 15 14 14 13 13 14 14 15 16 15 16 16 17 17 17 17 17 18 17 17 17 16 16 15 15 14 13 12 12 11 10 10 10 10 10 9 9 8 8 7 7 7 6 6 6 5 5 5
14 15 15 15 13 12 13 13 14 15 15 15 15 16 16 16 16 17 17 16 16 16 15 15 14 14 13 13 12 12 11 11 11 11 10 10 9 9 8 8 7 7 6 6 6 5 5 4 4
15 15 14 14 13 12 12 12 12 14 15 15 15 15 16 16 16 16 16 16 15 15 15 14 14 13 13 12 12 11 11 11 10 10 9 9 9 8 8 7 7 6 6 6 5 5 4 4 3
15 14 13 11 11 12 13 12 13 13 15 15 14 15 15 15 15 15 15 15 15 14 14 14 13 13 12 12 11 11 10 10 10 9 9 9 8 8 8 7 7 6 6 5 5 5 4 4 3
14 12 12 13 12 13 13 13 13 14 14 14 14 14 15 15 15 14 14 14 14 14 13 13 13 12 12 12 11 11 10 10 9 9 9 8 8 8 8 7 7 6 6 5 5 4 4 3 3
14 13 13 14 13 12 12 13 14 14 15 15 15 14 14 14 14 14 13 13 13 13 13 13 12 12 12 11 11 11 10 10 9 9 9 8 8 8 8 7 6 6 5 5 4 4 3 3 3
15 13 12 11 12 12 11 12 13 14 13 13 13 14 14 14 13 13 13 13 13 12 12 12 12 11 11 11 10 10 10 9 9 9 8 8 8 7 7 7 6 6 5 5 4 4 3 3 3
14 12 11 12 12 12 11 12 13 15 14 13 12 13 14 13 13 13 12 12 12 12 11 11 11 10 10 10 9 9 9 8 8 8 8 7 7 7 6 6 6 5 5 5 4 4 3 3 3
13 13 12 10 10 11 11 12 13 14 14 12 12 14 14 13 13 12 12 12 11 11 11 10 10 10 9 9 8 8 8 8 7 7 7 7 6 6 6 6 5 5 5 4 4 3 3 3 2
12 12 11 12 11 10 9 11 13 13 13 13 13 14 13 12 12 12 11 11 10 10 10 9 9 9 8 8 7 7 7 7 7 6 6 6 6 6 5 5 4 4 4 4 3 3 2 2 2
Wind_Speed
4 3 3 4 5 5 3 5 5 4 4 3 4 7 5 5 5 4 2 12 13 19 26 26 25 23 21 20 18 17 16 14 13 12 12 12 11 11 11 11 11 11 11 12 12 13 14 14 14
3 2 5 5 5 1 5 5 7 7 7 5 4 6 4 5 2 4 7 11 19 23 24 25 26 24 22 21 19 18 17 16 14 13 13 12 11 11 11 10 10 10 10 11 11 12 12 13 13
2 2 4 5 3 5 4 5 7 4 5 5 5 3 4 5 5 8 8 15 21 22 23 25 27 25 23 22 20 19 18 17 15 14 13 12 12 11 11 10 10 10 10 10 10 10 11 11 12
3 5 5 4 5 7 7 9 7 5 3 4 6 3 3 3 7 8 10 18 18 18 23 25 27 26 24 23 21 20 19 18 16 15 14 13 12 11 11 10 10 9 9 9 9 9 9 10 10
4 5 4 3 7 7 6 6 8 8 7 6 7 6 5 2 4 9 17 19 20 16 23 25 27 26 25 24 22 21 20 18 17 16 15 14 13 12 11 10 10 9 8 8 8 8 8 8 9
4 5 3 4 8 8 5 3 6 5 4 4 6 4 6 2 7 10 16 16 16 18 22 24 27 26 25 24 23 22 21 19 18 17 16 15 14 13 12 11 10 9 8 8 7 6 6 7 7
4 4 2 4 6 7 5 1 4 4 4 7 8 6 4 3 6 10 12 11 12 18 19 20 23 25 26 25 24 23 21 20 19 18 17 16 15 14 13 12 11 10 8 7 6 6 5 5 5
5 4 2 3 5 7 4 2 3 5 6 3 9 8 8 8 8 9 9 9 10 12 15 18 19 21 22 23 24 23 22 21 20 19 18 17 15 15 14 13 12 11 9 8 7 6 5 4 4
5 4 4 5 5 6 3 3 4 2 3 3 6 5 4 11 13 11 8 7 10 13 12 16 16 18 20 21 23 23 23 22 21 20 19 17 14 13 13 13 13 12 11 10 8 7 6 5 4
5 3 8 6 5 6 5 5 5 4 6 6 5 1 4 12 17 17 15 15 16 18 16 12 15 17 19 20 20 20 20 20 21 19 19 17 15 14 13 14 15 14 12 11 10 9 8 6 5
6 7 7 8 7 6 5 6 4 4 9 11 11 8 9 11 15 18 19 19 19 17 16 16 15 18 19 16 16 16 17 17 19 20 20 19 17 15 14 14 15 14 13 11 10 8 8 7 8
4 8 7 7 4 4 6 5 4 7 13 10 10 7 11 15 19 21 21 19 14 12 17 16 15 16 18 18 15 15 15 15 16 20 22 19 15 14 14 15 15 14 13 13 12 11 10 11 12
5 6 6 7 8 7 7 7 6 11 16 10 8 8 15 19 20 20 18 15 14 14 16 16 14 15 17 16 15 16 16 17 17 19 21 21 16 13 14 14 16 16 16 15 13 13 12 12 13
4 5 9 10 11 6 7 6 4 14 9 8 8 10 15 20 22 17 15 16 19 19 18 16 18 17 17 15 14 14 18 18 18 19 21 22 19 16 14 13 14 16 18 17 16 15 13 12 12
4 7 11 7 4 3 1 8 8 13 9 11 12 11 12 18 18 21 21 22 23 20 18 18 18 16 16 15 16 17 19 20 19 20 22 23 22 19 16 13 13 16 18 18 16 15 13 9 9
4 4 6 8 3 2 2 11 11 9 9 13 12 11 8 11 15 20 19 19 18 15 16 18 18 17 17 14 15 16 18 19 20 20 21 23 23 22 18 13 13 17 17 15 11 7 6 7 7
4 3 6 9 4 1 2 12 14 7 7 10 10 9 7 6 8 13 15 16 16 17 16 17 17 18 17 13 13 14 15 18 19 19 20 22 23 23 20 16 15 17 14 12 10 7 7 8 8
4 6 6 7 6 2 6 12 18 12 5 5 7 8 9 8 8 8 10 12 12 12 13 15 16 15 13 10 8 7 9 10 15 18 20 21 22 23 21 16 15 15 9 8 8 9 8 7 7
5 5 9 9 6 5 8 12 14 9 5 7 7 9 10 9 9 7 2 7 9 10 12 14 16 14 11 8 9 10 12 9 8 12 18 20 21 21 20 15 12 12 10 12 11 9 9 8 4
5 6 8 8 5 4 7 9 8 4 3 3 4 7 8 10 12 11 7 2 7 10 11 12 14 13 13 13 10 7 6 6 7 8 14 19 20 21 21 16 10 10 10 11 11 10 7 7 7
5 6 6 6 8 6 6 8 5 4 4 4 4 5 6 7 9 10 8 3 2 6 9 11 12 13 13 11 6 3 2 2 4 7 8 13 20 21 21 19 15 11 12 13 14 13 12 11 9
6 5 4 3 5 6 4 3 7 3 4 3 4 5 6 7 7 7 7 5 2 4 5 7 8 9 10 10 9 11 11 12 11 10 10 10 17 19 21 20 17 14 13 15 15 14 13 12 12
6 2 3 2 1 4 2 2 8 4 4 4 3 2 4 6 7 8 8 6 5 3 0 2 4 6 8 9 11 11 13 14 9 7 9 11 10 15 19 19 16 15 14 16 15 14 15 14 15
2 5 5 5 4 3 4 4 6 5 7 6 4 2 2 5 6 7 7 7 7 6 4 2 1 4 6 9 10 12 15 13 11 11 11 10 9 10 14 16 15 16 15 16 16 16 17 17 17
5 6 5 5 4 5 4 3 8 7 7 8 8 5 1 3 4 5 7 7 7 7 5 3 1 3 4 7 9 12 14 13 15 14 12 12 10 11 13 14 15 16 16 16 15 16 18 19 17
2 6 4 2 4 6 6 5 7 6 2 5 6 5 2 2 2 3 4 5 5 6 5 3 3 4 4 6 8 9 11 10 11 13 12 12 12 12 12 14 16 17 17 17 16 16 18 17 19
3 3 6 5 1 4 7 8 8 4 6 5 5 4 3 2 0 2 3 4 5 5 5 4 4 5 6 6 7 8 9 10 12 12 11 11 12 11 12 13 15 16 17 17 17 16 18 17 18
3 6 5 3 1 4 8 7 5 3 3 4 5 6 5 4 1 1 2 3 4 4 4 5 4 5 5 6 6 7 8 9 10 10 11 12 13 12 12 12 14 15 15 16 17 16 16 18 18
5 4 4 4 4 4 5 8 6 5 5 6 7 7 6 5 3 1 2 3 4 5 5 5 5 5 6 7 7 8 8 9 9 9 11 12 12 12 12 13 13 14 15 14 15 17 16 19 19
7 7 7 4 5 5 4 8 5 3 3 5 4 4 4 3 2 1 3 4 5 6 6 6 6 6 7 7 7 8 8 8 9 10 11 11 11 11 12 12 13 13 14 13 15 17 17 18 19
Wind_Direction
330 35 73 59 53 47 280 263 184 179 186 190 142 125 149 190 197 222 144 149 146 160 171 173 172 171 169 167 164 161 158 154 149 144 139 134 128 122 114 107 100 95 89 84 80 77 73 71 70
9 66 59 62 82 13 280 251 181 195 186 151 120 116 136 223 207 150 147 167 156 163 170 172 174 173 171 169 167 165 162 159 155 152 147 142 137 131 125 117 111 104 96 90 84 80 76 72 71
352 81 81 75 132 194 240 235 210 213 184 159 145 146 180 212 194 187 188 162 158 166 170 173 175 174 173 172 170 169 167 164 161 158 155 150 146 140 134 127 121 113 106 98 91 85 80 76 73
58 51 58 76 248 235 228 227 209 170 216 197 152 176 225 221 188 186 162 158 159 167 170 176 178 177 176 175 174 172 171 169 167 164 161 158 154 149 143 138 132 125 117 109 100 92 85 79 76
61 73 48 333 278 269 255 215 181 184 197 202 172 192 235 273 171 151 154 161 165 168 172 179 180 180 180 179 177 176 175 174 172 170 168 166 162 158 154 150 145 138 130 122 111 101 93 85 81
56 67 65 289 286 293 298 187 177 202 215 212 184 195 240 328 158 160 159 164 167 168 173 182 184 184 183 182 181 180 179 178 177 176 174 172 170 167 165 162 158 152 145 137 127 116 104 95 89
102 99 198 255 285 300 300 181 184 211 220 214 188 192 267 262 198 155 152 151 162 170 175 185 187 186 187 187 186 184 183 183 182 181 180 178 177 176 174 172 170 167 162 155 148 138 127 114 103
120 104 259 266 271 281 281 277 227 216 236 212 160 182 236 215 168 138 133 143 160 173 180 187 188 186 187 189 190 189 188 187 186 186 184 183 184 184 183 181 181 180 177 174 171 167 162 152 134
86 83 247 246 244 263 271 281 272 287 250 244 204 213 245 143 139 138 144 158 173 185 189 188 188 186 186 188 193 192 192 192 190 189 188 187 185 185 187 185 191 191 190 190 191 191 190 188 187
97 170 234 226 221 246 256 244 258 268 259 255 252 319 102 141 159 170 180 184 188 193 194 191 189 186 184 190 195 193 192 194 191 188 187 184 182 185 189 195 201 200 200 202 204 205 205 200 203
168 203 234 247 244 237 252 254 241 234 261 232 227 209 161 168 178 187 194 195 196 192 192 195 192 187 186 189 191 190 189 190 187 186 184 182 185 192 202 207 212 208 206 208 214 218 209 211 212
229 242 238 254 257 244 248 255 261 231 245 237 225 186 173 184 191 197 201 204 196 188 196 195 192 190 191 190 190 189 188 187 186 187 186 183 187 197 205 209 211 206 202 205 215 221 224 226 225
245 261 277 276 279 258 255 252 263 261 259 270 255 187 189 197 204 208 209 206 196 197 196 195 192 193 192 192 194 196 196 195 192 191 193 191 192 199 203 209 209 209 207 207 212 219 225 228 229
268 287 294 286 278 254 240 261 219 269 280 295 267 222 207 208 210 209 210 209 206 206 200 193 194 195 192 196 199 200 201 199 196 199 200 200 201 202 202 208 210 212 212 213 213 217 219 224 225
323 326 319 301 301 291 261 296 237 256 308 302 287 266 230 220 214 212 212 211 209 208 201 195 195 193 195 198 201 202 202 201 204 207 206 205 206 205 204 208 212 215 215 215 216 220 222 225 226
11 7 322 303 324 314 305 280 266 272 297 294 297 297 274 239 221 222 218 215 210 204 200 199 198 195 199 200 199 202 201 203 209 209 208 210 210 208 207 211 216 215 211 209 209 210 213 224 224
24 328 288 299 291 252 264 273 287 311 296 299 315 324 327 301 255 234 224 217 209 203 198 197 200 198 199 198 197 199 199 205 209 208 210 212 212 210 210 216 218 212 209 210 216 211 208 220 226
276 281 277 280 294 283 261 270 291 315 324 333 344 355 1 353 309 268 229 214 204 199 196 197 200 201 194 189 190 196 205 210 210 210 214 211 212 211 213 219 217 208 208 215 216 218 214 219 221
231 248 274 269 285 306 273 284 298 316 31 38 22 18 13 357 338 345 267 192 183 187 192 196 199 199 187 187 196 204 217 215 214 217 217 214 214 213 214 223 215 209 218 222 216 218 221 226 193
238 276 284 294 327 312 299 304 311 3 57 57 36 23 14 6 6 7 19 135 185 194 198 198 201 197 196 203 202 202 208 215 216 220 221 218 217 217 220 222 219 212 220 225 218 212 220 221 189
273 247 261 286 327 352 358 345 342 354 12 18 12 6 12 17 9 4 10 22 187 206 206 207 205 201 201 197 183 181 183 258 223 221 225 220 219 220 223 223 221 217 217 227 223 214 217 227 212
272 253 242 303 359 315 24 310 289 277 335 344 348 358 14 15 14 10 8 7 322 249 219 215 207 204 200 187 190 197 211 227 229 225 227 220 219 222 223 225 223 222 222 228 225 219 219 220 227
242 304 274 253 174 315 309 196 281 262 242 250 272 328 16 20 25 19 11 5 4 1 278 221 207 208 201 197 203 209 226 237 241 230 231 231 225 225 226 226 225 227 228 229 227 222 218 219 227
344 20 42 52 71 322 251 179 278 226 212 207 218 238 34 31 31 23 14 21 18 22 31 46 203 227 211 207 213 219 231 239 245 242 241 241 237 233 230 228 228 230 231 231 228 226 223 224 226
63 53 15 355 5 269 289 232 254 250 220 184 184 179 116 45 38 27 25 21 16 16 14 11 323 268 237 220 224 228 235 240 244 248 248 247 248 243 236 230 232 234 234 233 229 228 229 227 227
193 135 146 246 267 293 319 255 263 295 158 134 138 139 121 72 33 30 26 23 11 7 4 347 315 287 270 244 242 241 241 243 250 251 249 250 252 251 242 232 235 236 235 234 231 232 231 231 231
156 160 169 144 288 283 288 293 311 39 80 107 128 143 169 189 159 26 12 16 11 3 351 322 302 293 286 268 262 260 253 248 252 257 255 256 257 257 248 240 240 239 237 235 233 234 233 231 232
144 144 100 130 229 283 295 290 253 213 205 182 184 197 211 221 242 359 359 355 354 350 343 341 320 297 292 286 272 268 265 259 259 264 264 262 262 260 258 252 247 245 242 238 235 238 236 233 234
160 174 154 146 166 182 273 276 236 214 205 192 205 213 218 224 225 275 330 341 346 347 348 344 335 326 314 303 291 285 281 277 272 267 267 267 267 265 261 259 255 251 248 243 240 239 236 236 237
183 185 154 169 230 197 213 268 269 194 179 173 203 226 236 235 242 303 334 343 345 343 339 336 326 317 304 299 296 290 288 288 283 276 274 272 271 269 266 264 260 257 253 246 242 243 240 238 238
Height
1546 1547 1548 1550 1553 1563 1563 1554 1549 1548 1546 1544 1544 1545 1546 1548 1551 1554 1548 1547 1548 1550 1552 1554 1557 1559 1561 1562 1563 1564 1565 1565 1566 1566 1566 1566 1566 1566 1566 1566 1565 1565 1564 1564 1563 1562 1561 1559 1558
1547 1548 1550 1550 1560 1570 1564 1551 1548 1543 1542 1542 1543 1544 1545 1545 1545 1545 1544 1545 1546 1548 1550 1552 1555 1557 1559 1561 1562 1563 1564 1564 1565 1565 1566 1566 1566 1566 1566 1565 1565 1564 1564 1563 1563 1562 1561 1560 1559
1547 1548 1550 1552 1561 1567 1557 1548 1544 1541 1541 1541 1542 1543 1543 1543 1542 1542 1543 1544 1545 1547 1549 1551 1553 1555 1557 1559 1560 1561 1562 1563 1564 1564 1564 1565 1565 1565 1565 1565 1564 1564 1564 1563 1563 1562 1561 1560 1559
1548 1549 1550 1556 1558 1554 1549 1543 1542 1542 1541 1541 1540 1541 1541 1541 1540 1540 1541 1542 1543 1545 1547 1549 1551 1553 1555 1557 1559 1560 1561 1562 1562 1563 1563 1564 1564 1564 1564 1564 1564 1564 1563 1563 1563 1562 1561 1561 1560
1547 1548 1554 1560 1556 1548 1541 1538 1540 1540 1539 1539 1539 1538 1538 1537 1537 1538 1539 1540 1542 1543 1545 1547 1549 1551 1553 1555 1557 1558 1559 1560 1561 1562 1562 1563 1563 1563 1563 1563 1563 1563 1563 1563 1563 1562 1562 1561 1560
1548 1549 1561 1564 1556 1546 1540 1539 1541 1540 1538 1538 1538 1537 1534 1534 1534 1535 1537 1539 1540 1542 1543 1545 1547 1549 1551 1553 1555 1556 1558 1559 1560 1560 1561 1561 1562 1562 1562 1562 1562 1563 1563 1562 1562 1562 1561 1561 1560
1549 1553 1559 1557 1555 1549 1541 1540 1540 1538 1537 1536 1535 1535 1531 1531 1532 1534 1535 1537 1538 1540 1542 1543 1545 1547 1549 1551 1553 1554 1556 1557 1558 1559 1559 1560 1560 1561 1561 1561 1561 1562 1562 1562 1561 1561 1561 1561 1560
1548 1552 1554 1556 1553 1548 1541 1539 1538 1537 1535 1534 1533 1531 1529 1529 1530 1531 1533 1534 1536 1538 1539 1541 1542 1544 1546 1548 1550 1552 1553 1555 1556 1557 1558 1558 1559 1559 1560 1560 1560 1560 1560 1560 1560 1560 1560 1560 1560
1547 1555 1559 1554 1549 1544 1539 1538 1537 1535 1533 1532 1530 1528 1527 1527 1527 1529 1530 1531 1533 1534 1535 1537 1539 1541 1543 1545 1547 1549 1551 1552 1553 1555 1556 1556 1557 1558 1558 1558 1559 1559 1559 1559 1559 1559 1559 1559 1558
1547 1557 1552 1545 1542 1540 1537 1536 1534 1532 1530 1528 1526 1525 1524 1524 1524 1524 1525 1526 1527 1528 1530 1533 1535 1537 1540 1542 1544 1546 1547 1549 1550 1552 1553 1554 1555 1556 1556 1557 1557 1557 1557 1557 1557 1557 1557 1557 1557
1544 1547 1542 1539 1537 1536 1535 1533 1531 1530 1527 1523 1522 1521 1520 1520 1520 1521 1521 1522 1523 1525 1527 1529 1531 1534 1536 1538 1540 1542 1544 1545 1547 1549 1550 1552 1552 1553 1554 1554 1555 1555 1555 1555 1555 1555 1555 1555 1555
1543 1540 1538 1535 1534 1533 1532 1529 1528 1526 1521 1519 1519 1519 1517 1516 1516 1516 1517 1518 1520 1521 1523 1525 1528 1530 1532 1535 1537 1538 1540 1541 1543 1545 1547 1548 1549 1550 1551 1552 1552 1552 1553 1553 1552 1552 1552 1552 1552
1540 1537 1535 1533 1532 1530 1528 1527 1526 1519 1515 1515 1514 1514 1512 1511 1511 1511 1513 1515 1516 1517 1519 1521 1524 1526 1528 1530 1532 1534 1535 1537 1540 1542 1543 1544 1545 1546 1548 1548 1549 1549 1550 1550 1550 1549 1549 1549 1549
1537 1536 1533 1530 1527 1525 1524 1522 1523 1514 1513 1511 1510 1508 1507 1506 1505 1507 1507 1508 1510 1511 1514 1516 1518 1521 1524 1526 1527 1529 1531 1533 1536 1537 1539 1540 1541 1543 1544 1545 1545 1546 1546 1547 1547 1546 1546 1545 1545
1537 1536 1532 1527 1524 1523 1523 1523 1518 1511 1511 1508 1506 1504 1502 1500 1500 1500 1501 1502 1504 1506 1509 1511 1513 1516 1518 1520 1523 1525 1526 1529 1530 1532 1534 1536 1537 1538 1539 1540 1541 1542 1543 1543 1543 1542 1542 1541 1540
1537 1540 1541 1529 1525 1524 1527 1526 1512 1511 1510 1505 1502 1498 1496 1495 1494 1495 1496 1498 1500 1502 1505 1507 1509 1511 1513 1515 1517 1519 1521 1523 1525 1527 1529 1531 1532 1534 1534 1535 1535 1537 1538 1538 1537 1537 1536 1536 1535
1543 1547 1543 1534 1525 1525 1526 1523 1508 1509 1507 1503 1500 1496 1493 1491 1490 1491 1491 1493 1495 1498 1501 1503 1505 1506 1508 1511 1513 1515 1516 1518 1519 1521 1523 1524 1526 1527 1528 1529 1530 1532 1532 1531 1531 1531 1530 1530 1530
1546 1545 1542 1539 1527 1526 1526 1522 1509 1506 1505 1503 1500 1497 1493 1491 1489 1488 1488 1489 1492 1494 1497 1500 1502 1503 1505 1508 1510 1511 1512 1512 1513 1514 1516 1518 1519 1521 1522 1522 1523 1524 1524 1524 1524 1523 1524 1523 1524
1539 1540 1542 1535 1526 1525 1524 1520 1511 1505 1504 1503 1501 1498 1495 1493 1491 1488 1487 1488 1489 1491 1494 1496 1498 1500 1502 1503 1504 1505 1505 1506 1507 1508 1510 1511 1512 1514 1514 1515 1515 1516 1516 1516 1517 1517 1516 1516 1517
1536 1539 1538 1531 1525 1525 1523 1520 1512 1506 1506 1505 1503 1500 1497 1494 1492 1490 1489 1488 1488 1490 1492 1493 1495 1497 1498 1499 1500 1501 1502 1502 1503 1504 1504 1505 1505 1506 1507 1507 1507 1508 1508 1508 1508 1509 1508 1508 1509
1534 1536 1535 1533 1529 1525 1525 1521 1515 1510 1507 1506 1504 1502 1499 1497 1494 1492 1490 1490 1489 1490 1490 1492 1493 1494 1495 1496 1498 1498 1498 1497 1497 1497 1497 1498 1498 1498 1499 1499 1499 1499 1499 1498 1499 1500 1500 1499 1499
1537 1529 1529 1530 1534 1537 1533 1538 1522 1512 1510 1507 1505 1503 1501 1499 1496 1494 1493 1491 1490 1490 1490 1490 1491 1492 1493 1494 1494 1493 1492 1490 1490 1491 1491 1491 1491 1490 1490 1490 1490 1489 1488 1487 1488 1489 1489 1490 1488
1529 1527 1528 1529 1532 1538 1535 1538 1526 1514 1512 1508 1506 1504 1502 1500 1498 1496 1494 1493 1491 1490 1490 1490 1490 1490 1490 1491 1490 1489 1488 1486 1486 1485 1484 1483 1483 1482 1481 1481 1480 1479 1478 1477 1477 1478 1477 1476 1477
1526 1529 1531 1535 1540 1541 1531 1536 1527 1516 1508 1506 1505 1504 1503 1501 1500 1498 1496 1494 1493 1491 1490 1490 1489 1489 1488 1488 1487 1486 1484 1483 1481 1479 1477 1476 1475 1473 1472 1472 1470 1469 1468 1466 1466 1466 1466 1465 1464
1529 1538 1545 1541 1547 1540 1529 1529 1523 1505 1500 1501 1503 1504 1503 1502 1501 1499 1497 1496 1494 1493 1492 1490 1489 1488 1487 1486 1484 1483 1481 1479 1476 1474 1472 1469 1467 1464 1463 1462 1460 1458 1457 1456 1455 1454 1452 1452 1451
1529 1536 1547 1549 1551 1545 1531 1528 1514 1502 1498 1500 1502 1504 1504 1503 1502 1500 1499 1497 1495 1494 1492 1491 1489 1488 1486 1485 1483 1480 1478 1475 1472 1469 1466 1463 1460 1457 1455 1453 1450 1448 1447 1445 1444 1442 1440 1440 1438
1528 1534 1535 1546 1546 1548 1539 1526 1511 1502 1502 1503 1504 1504 1504 1503 1502 1501 1499 1498 1496 1494 1492 1490 1488 1487 1484 1482 1480 1477 1474 1471 1467 1464 1460 1457 1453 1450 1447 1444 1441 1438 1436 1435 1433 1430 1428 1428 1426
1527 1531 1541 1544 1549 1551 1542 1532 1519 1506 1505 1504 1504 1504 1503 1502 1502 1500 1499 1498 1496 1494 1492 1489 1487 1484 1482 1479 1476 1473 1469 1466 1462 1458 1454 1450 1446 1442 1438 1435 1432 1429 1426 1424 1422 1419 1417 1416 1414
1530 1531 1534 1543 1547 1552 1549 1533 1508 1503 1502 1503 1502 1502 1501 1501 1501 1500 1498 1497 1495 1492 1490 1487 1484 1481 1478 1474 1471 1467 1464 1460 1455 1451 1446 1442 1437 1433 1429 1426 1422 1419 1416 1413 1411 1407 1406 1404 1402
1524 1526 1533 1540 1541 1545 1548 1531 1501 1501 1499 1500 1500 1500 1500 1501 1500 1499 1497 1495 1493 1490 1487 1484 1481 1477 1473 1470 1466 1462 1457 1453 1448 1443 1438 1433 1428 1424 1420 1416 1411 1408 1405 1402 1399 1396 1394 1392 1390